Lamar, CO

8:33 PM MDT on May 29, 2017 (GMT -0600)
Lamar Municipal

Weather History for KLAA - April, 2014

Change the Weather History Date:

Saturday, April 12, 2014

  Actual Average Record
Temperature  
Mean Temperature 70 °F 51 °F  
Max Temperature 87 °F 68 °F 87 °F (1982)
Min Temperature 52 °F 34 °F 9 °F (1997)
Degree Days  
Heating Degree Days 0 14  
Month to date heating degree days 157 188  
Since 1 July heating degree days 5126 5197  
Cooling Degree Days 5 0  
Month to date cooling degree days 5 0  
Year to date cooling degree days 5 0  
Growing Degree Days 18 (Base 50)    
Moisture  
Dew Point 17 °F    
Average Humidity 17    
Maximum Humidity 28    
Minimum Humidity 5    
Precipitation  
Precipitation 0.00 in 0.04 in 1.03 in (1966)
Month to date precipitation 0.16 0.37  
Year to date precipitation 0.69  
Sea Level Pressure  
Sea Level Pressure 29.51 in    
Wind  
Wind Speed 9 mph (WSW)    
Max Wind Speed 21 mph    
Max Gust Speed 29 mph    
Visibility 10 miles    
Events      
T = Trace of Precipitation, MM = Missing Value Source: NWS Daily Summary

Daily Weather History Graph

Daily Weather History Graph

Search for Another Location

Airport or City:

Trip Planner

Search our weather history database for the weather conditions in past years. The results will help you decide how hot, cold, wet, or windy it might be!

Date:

Astronomy

Apr. 12, 2014 Rise Set
Actual Time 6:19 AM MDT 7:24 PM MDT
Civil Twilight 5:52 AM MDT 7:51 PM MDT
Nautical Twilight 5:20 AM MDT 8:23 PM MDT
Astronomical Twilight 4:46 AM MDT 8:57 PM MDT
Moon 5:06 PM MDT (4/12) 4:45 AM MDT (4/12)
Length of Visible Light 13h 58m
Length of Day
13h 04m
Waxing Gibbous, 93% of the Moon is Illuminated
Apr 12
Waxing Gibbous
Apr 15
Full
Apr 22
Last Quarter
Apr 29
New
May 6
First Quarter

Hourly Weather History & Observations

Time (MDT) Temp. Dew Point Humidity Pressure Visibility Wind Dir Wind Speed Gust Speed Precip Events Conditions
12:53 AM 64.9 °F 25.0 °F 22% 29.55 in 10.0 mi SW 19.6 mph - N/A   Clear
1:53 AM 64.9 °F 17.1 °F 16% 29.54 in 10.0 mi West 15.0 mph - N/A   Clear
2:53 AM 61.0 °F 17.1 °F 18% 29.55 in 10.0 mi WSW 10.4 mph - N/A   Clear
3:53 AM 55.0 °F 18.0 °F 23% 29.57 in 10.0 mi WSW 6.9 mph - N/A   Clear
4:53 AM 52.0 °F 19.9 °F 28% 29.58 in 10.0 mi SSW 4.6 mph - N/A   Clear
5:53 AM 54.0 °F 19.9 °F 26% 29.58 in 10.0 mi West 9.2 mph - N/A   Clear
6:53 AM 54.0 °F 21.9 °F 29% 29.60 in 10.0 mi WSW 9.2 mph - N/A   Clear
7:53 AM 57.0 °F 18.0 °F 22% 29.62 in 10.0 mi SW 6.9 mph - N/A   Clear
8:53 AM 64.0 °F 19.0 °F 18% 29.62 in 10.0 mi WSW 10.4 mph - N/A   Clear
9:53 AM 69.1 °F 21.9 °F 17% 29.61 in 10.0 mi WNW 8.1 mph - N/A   Clear
10:53 AM 75.0 °F 19.9 °F 13% 29.59 in 10.0 mi NNW 5.8 mph - N/A   Clear
11:53 AM 79.0 °F 17.1 °F 10% 29.55 in 10.0 mi WNW 4.6 mph - N/A   Clear
12:53 PM 82.0 °F 14.0 °F 8% 29.49 in 10.0 mi NE 10.4 mph - N/A   Clear
1:53 PM 84.0 °F 10.9 °F 6% 29.46 in 10.0 mi ESE 12.7 mph 18.4 mph N/A   Clear
2:53 PM 84.9 °F 8.1 °F 5% 29.44 in 10.0 mi WSW 13.8 mph 24.2 mph N/A   Clear
3:53 PM 84.9 °F 5.0 °F 5% 29.42 in 10.0 mi SSW 5.8 mph - N/A   Clear
4:31 PM 82.9 °F 7.0 °F 6% 29.54 in 10.0 mi West 17.3 mph - N/A   Clear
4:53 PM 82.9 °F 7.0 °F 6% 29.41 in 10.0 mi NW 10.4 mph - N/A   Clear
5:53 PM 81.0 °F 10.0 °F 7% 29.40 in 10.0 mi WNW 8.1 mph - N/A   Clear
6:53 PM 75.0 °F 18.0 °F 12% 29.42 in 7.0 mi Calm Calm - N/A   Clear
7:53 PM 73.9 °F 19.0 °F 13% 29.42 in 9.0 mi SSW 5.8 mph - N/A   Partly Cloudy
8:53 PM 73.9 °F 21.9 °F 14% 29.43 in 10.0 mi South 9.2 mph - N/A   Mostly Cloudy
9:53 PM 72.0 °F 25.0 °F 17% 29.42 in 10.0 mi SSE 11.5 mph - N/A   Mostly Cloudy
10:53 PM 71.1 °F 27.0 °F 19% 29.42 in 10.0 mi NW 9.2 mph - N/A   Mostly Cloudy
11:53 PM 68.0 °F 28.0 °F 22% 29.41 in 10.0 mi SSW 12.7 mph - N/A   Mostly Cloudy